Location: Dunedin
(45.8900°S, 170.5000°E)
Time: 17:45:08
(UTC+12:00)

ISS - Visible Passes

Search period start: 13 April 2024 00:00
Search period end: 23 April 2024 00:00
Orbit: 413 x 419 km, 51.6° (Epoch: 12 April)

Date Brightness Start Highest point End Pass type
(mag) Time Alt. Az. Time Alt. Az. Time Alt. Az.
13 Apr -0.8 20:21:18 10° NNW 20:21:28 11° NNW 20:21:28 11° NNW visible
14 Apr -2.2 19:33:18 10° NNW 19:35:28 22° NNE 19:35:28 22° NNE visible
15 Apr -1.7 18:45:44 10° N 18:47:44 15° NE 18:49:19 12° ENE visible
15 Apr -1.7 20:20:36 10° WNW 20:22:14 26° WNW 20:22:14 26° WNW visible
16 Apr -3.6 19:32:08 10° NW 19:35:28 55° NNE 19:35:55 50° ENE visible
17 Apr -2.8 18:43:49 10° NNW 18:46:57 34° NE 18:49:29 14° E visible
17 Apr -1.9 20:20:17 10° W 20:22:23 32° WSW 20:22:23 32° WSW visible
18 Apr -3.6 19:31:31 10° WNW 19:34:56 69° SSW 19:35:49 45° SE visible
19 Apr -3.7 18:42:51 10° WNW 18:46:16 81° NNE 18:49:10 14° ESE visible
19 Apr -1.6 20:20:04 10° WSW 20:22:03 26° SW 20:22:03 26° SW visible
20 Apr -2.7 19:31:10 10° W 19:34:27 40° SSW 19:35:19 33° SSE visible
21 Apr -3.1 18:42:16 10° W 18:45:38 52° SSW 18:48:31 13° SE visible
21 Apr -1.3 20:19:45 10° WSW 20:21:24 22° SW 20:21:24 22° SW visible
22 Apr -2.5 19:30:50 10° WSW 19:33:57 31° S 19:34:33 29° SSE visible
